Location: Kejimkujik National Park
(44.4000°N, 65.2200°W)
Time: 11:15:46
(UTC-04:00)

ISS - Visible Passes

Search period start: 27 November 2020 00:00
Search period end: 07 December 2020 00:00
Orbit: 418 x 420 km, 51.6° (Epoch: 28 November)

Date Brightness Start Highest point End Pass type
(mag) Time Alt. Az. Time Alt. Az. Time Alt. Az.
27 Nov -2.0 18:38:55 10° WNW 18:41:28 23° NNW 18:41:28 23° NNW visible
28 Nov -2.2 17:51:08 10° WNW 17:54:00 25° N 17:55:49 17° NE visible
28 Nov -0.5 19:28:37 10° NW 19:28:46 11° NW 19:28:46 11° NW visible
29 Nov -1.9 18:41:02 10° NW 18:43:07 22° NNW 18:43:07 22° NNW visible
30 Nov -2.1 17:53:20 10° NW 17:56:06 23° N 17:57:29 18° NE visible
30 Nov -0.5 19:30:20 10° NW 19:30:26 11° NW 19:30:26 11° NW visible
01 Dec -2.1 18:42:48 10° NW 18:44:50 25° NNW 18:44:50 25° NNW visible
02 Dec -2.4 17:55:14 10° NW 17:58:08 26° N 17:59:16 21° NE visible
02 Dec -0.5 19:31:56 10° WNW 19:32:13 12° WNW 19:32:13 12° WNW visible
03 Dec -2.3 17:07:36 10° NW 17:10:24 24° N 17:13:12 10° ENE visible
03 Dec -2.7 18:44:24 10° NW 18:46:44 37° NNW 18:46:44 37° NNW visible
04 Dec -3.1 17:56:52 10° NW 18:00:03 38° NNE 18:01:20 27° ENE visible
04 Dec -0.6 19:33:41 10° WNW 19:34:18 14° WNW 19:34:18 14° WNW visible
05 Dec -2.7 17:09:18 10° NW 17:12:20 30° NNE 17:15:23 10° E visible
05 Dec -3.3 18:46:00 10° WNW 18:49:03 62° WSW 18:49:03 62° WSW visible
06 Dec -3.9 17:58:23 10° WNW 18:01:46 79° NNE 18:03:59 20° ESE visible
06 Dec -0.5 19:36:05 10° W 19:36:59 13° WSW 19:36:59 13° WSW visible
